Overview Statistics Trail Chart Weather Telemetry Raw packets
 

This is the latest recevied weather packets stored in our database for station/object KI5NXU. If no packets are shown the sender has not sent any weather packets the latest 10 day(s).

<< 23 24 25 26 27 28 29 >>
Time Temp. Humidity Pressure Rain* Wind** Luminosity Snow
1788226789 33.33° C 38% 1013.8 hPa 0 mm - 0 W/m² -
1788226484 33.89° C 37% 1013.5 hPa 0 mm - 0 W/m² -
1788226180 33.89° C 37% 1013.7 hPa 0 mm - 0 W/m² -
1788225874 33.89° C 37% 1013.6 hPa 0 mm - 0 W/m² -
1788225569 33.89° C 37% 1013.4 hPa 0 mm - 0 W/m² -
1788225266 33.89° C 36% 1013.6 hPa 0 mm - 0 W/m² -
1788224963 33.89° C 36% 1013.5 hPa 0 mm - 0 W/m² -
1788224659 34.44° C 36% 1013.3 hPa 0 mm - 1 W/m² -
1788224358 34.44° C 35% 1013.4 hPa 0 mm - 2 W/m² -
1788224053 34.44° C 35% 1013.2 hPa 0 mm - 5 W/m² -
1788223748 35° C 35% 1013.2 hPa 0 mm - 7 W/m² -
1788223447 35° C 35% 1013 hPa 0 mm - 10 W/m² -
1788223142 35° C 35% 1013.2 hPa 0 mm - 14 W/m² -
1788222837 35.56° C 34% 1013.2 hPa 0 mm - 19 W/m² -
1788222535 35.56° C 34% 1012.9 hPa 0 mm - 22 W/m² -
1788222235 36.11° C 34% 1013.2 hPa 0 mm - 28 W/m² -
1788221930 36.11° C 33% 1012.9 hPa 0 mm - 34 W/m² -
1788221625 36.67° C 33% 1013 hPa 0 mm - 40 W/m² -
1788221321 36.67° C 33% 1013 hPa 0 mm - 49 W/m² -
1788221016 37.22° C 32% 1012.8 hPa 0 mm - 69 W/m² -
1788220714 37.22° C 32% 1013.2 hPa 0 mm - 80 W/m² -
1788220410 37.22° C 31% 1012.9 hPa 0 mm - 94 W/m² -
1788220105 37.22° C 31% 1013 hPa 0 mm - 102 W/m² -
1788219805 37.78° C 30% 1013.3 hPa 0 mm - 121 W/m² -
1788219500 38.33° C 30% 1013 hPa 0 mm - 144 W/m² -

* Rain latest hour (hover to see other rain measurements)
** Current wind speed in m/s (hover to see current wind gust speed)